Lapse_Rate
6.4 6.5 6.5 6.5 6.5 6.5 6.5 6.5 6.5 6.5 6.5 6.5 6.5 6.5 6.5 6.8 7.0 7.0 7.1 7.1 6.8 6.1 7.0 6.3 6.5 6.6 6.5 6.1 6.2 6.0 5.2 4.5 4.4 4.1 4.2 4.3 4.4 3.5 3.4 3.1 3.8 3.0 3.2 2.6
6.5 6.5 6.5 6.5 6.5 6.5 6.5 6.5 6.5 6.5 6.5 6.5 6.5 6.5 6.5 6.7 6.8 7.0 7.1 7.1 7.3 7.0 7.0 6.8 5.9 6.1 6.4 6.5 5.7 5.0 5.0 4.2 4.4 5.5 4.8 5.0 4.2 3.8 3.7 4.4 3.7 3.3 2.9 3.6
6.5 6.5 6.5 6.5 6.5 6.5 6.5 6.5 6.5 6.5 6.5 6.5 6.5 6.5 6.5 6.5 6.9 7.2 7.3 7.3 7.3 6.5 6.2 6.3 6.2 5.9 5.2 5.6 4.5 4.7 4.8 4.3 4.8 4.9 3.8 3.1 3.0 3.4 4.3 4.5 3.6 3.8 3.6 4.0
6.5 6.5 6.5 6.5 6.5 6.5 6.5 6.5 6.5 6.5 6.5 6.5 6.5 6.5 6.5 6.5 6.5 6.5 7.0 7.2 6.5 6.3 5.4 5.8 5.5 5.6 5.2 5.1 4.4 5.1 4.4 4.1 3.9 3.9 4.1 4.2 4.3 3.4 4.7 3.9 3.3 3.8 3.9 4.1
6.5 6.5 6.5 6.5 6.5 6.5 6.5 6.5 6.5 6.5 6.5 6.5 6.5 6.5 6.5 6.5 6.5 6.5 6.7 7.1 6.9 5.5 5.4 4.6 4.6 5.0 4.6 4.4 3.2 4.0 3.8 4.2 3.9 4.0 4.4 4.2 4.1 4.7 4.5 3.6 4.0 4.3 4.1 4.2
6.5 6.3 6.5 6.5 6.5 6.5 6.5 6.5 6.5 6.5 6.5 6.5 6.5 6.5 6.5 6.5 6.5 6.5 6.7 7.1 7.1 5.3 5.0 5.0 4.3 4.0 3.7 2.6 2.9 3.3 3.5 3.8 3.5 3.9 4.1 4.2 4.4 4.3 4.9 4.7 4.7 4.9 5.1 4.7
6.5 6.5 6.5 6.4 6.5 6.5 6.5 6.5 6.5 6.5 6.5 6.5 6.5 6.5 6.5 6.5 6.5 6.5 6.5 6.9 6.1 5.0 4.0 4.3 4.0 3.1 3.0 2.0 2.2 2.9 3.3 2.8 3.0 3.6 3.8 4.4 3.9 4.3 5.2 5.0 5.0 4.9 4.8 4.4
6.5 6.5 6.5 6.5 6.5 6.5 6.5 6.5 6.5 6.5 6.5 6.5 6.5 6.5 6.5 6.5 6.7 6.3 5.6 6.1 6.2 5.4 4.3 4.0 3.7 3.3 2.4 1.9 2.0 2.6 2.8 3.4 2.8 3.3 3.8 4.0 4.0 3.4 5.3 5.0 4.8 4.5 4.4 4.1
6.5 6.5 6.5 6.5 6.5 6.5 6.5 6.5 6.5 6.5 6.5 6.5 6.5 6.5 6.5 6.5 6.5 6.7 6.8 6.1 6.2 5.9 5.1 4.4 3.8 3.2 2.9 2.3 2.2 2.4 2.7 2.9 2.6 3.0 4.2 4.2 3.5 4.0 4.9 4.1 4.4 4.0 3.7 3.7
6.5 6.5 6.5 6.5 6.6 6.6 6.5 6.5 6.5 6.5 6.5 6.5 6.5 6.5 6.5 6.5 6.5 6.5 6.5 6.7 4.9 4.2 5.0 5.2 4.6 3.2 2.8 3.1 3.0 2.6 3.2 3.5 2.2 2.9 3.9 4.4 4.3 4.8 3.9 3.3 3.5 3.4 3.9 5.0
6.5 6.5 6.5 6.5 6.5 6.5 6.5 6.5 6.5 6.5 6.5 6.5 6.5 6.5 6.5 6.5 6.5 6.5 6.6 5.6 4.8 3.6 3.2 3.9 4.4 4.1 4.0 3.6 3.5 2.9 2.7 2.4 2.3 3.3 3.5 3.7 3.6 3.1 2.9 2.9 3.3 3.7 3.8 3.3
6.5 6.5 6.5 6.5 6.5 6.5 6.5 6.5 6.5 6.5 6.5 6.5 6.5 6.5 6.5 6.5 6.5 6.7 6.8 5.6 4.2 2.9 3.0 2.6 3.3 3.8 3.6 3.6 3.4 2.6 2.1 1.5 2.1 2.1 2.5 2.5 1.8 1.9 2.9 3.3 3.5 4.4 3.4 2.1
6.5 6.5 6.5 6.5 6.5 6.5 6.5 6.5 6.5 6.5 6.5 6.5 6.5 6.5 6.5 6.6 6.6 6.4 6.6 5.6 4.6 3.2 2.7 2.9 3.0 2.6 2.4 2.9 2.4 2.3 1.6 0.5 0.8 1.5 0.8 0.9 2.3 2.6 2.5 4.0 3.2 2.4 2.9 4.5
5.7 6.5 6.5 6.5 6.5 6.5 6.5 6.5 6.5 6.5 6.5 6.5 6.5 6.5 6.5 6.5 6.5 6.6 6.0 4.9 4.7 3.8 3.1 2.8 2.5 2.9 2.7 2.3 2.7 1.2 -0.4 0.1 0.1 0.3 0.5 2.4 3.7 4.3 3.2 2.9 3.9 3.0 3.2 5.4
6.5 6.5 6.5 6.5 6.5 6.5 6.5 6.5 6.5 6.5 6.5 6.5 6.5 6.5 6.5 6.5 6.5 6.7 5.6 4.4 3.7 4.0 3.7 3.4 3.8 2.7 1.7 1.3 0.8 -0.1 -1.1 -0.5 0.6 3.0 3.7 3.3 3.1 1.6 1.2 2.8 4.1 3.6 5.7 6.5
6.5 6.5 6.5 6.5 6.5 6.5 6.5 6.5 6.5 6.5 6.5 6.5 6.5 6.5 6.5 6.6 6.5 6.4 5.6 4.5 4.4 3.9 3.9 4.2 3.7 2.8 2.3 1.6 1.5 1.0 2.2 3.5 3.4 3.2 2.7 2.3 1.2 1.3 4.0 4.4 3.2 5.5 6.7 6.7
6.5 6.5 6.5 6.5 6.5 6.5 6.5 6.5 6.5 6.5 6.5 6.5 6.5 6.5 6.5 6.5 6.5 6.7 6.1 4.6 4.3 3.4 3.4 3.5 3.5 3.4 2.9 2.9 3.2 3.8 3.9 4.1 4.0 3.6 2.6 2.8 3.6 5.2 4.5 4.7 6.9 6.9 6.0 6.4
6.5 6.5 6.5 6.5 6.5 6.5 6.5 6.5 6.5 6.5 6.5 6.5 6.5 6.5 6.5 6.6 6.3 4.8 3.4 4.3 3.8 2.9 2.2 1.9 2.0 2.2 2.9 3.3 3.3 3.1 3.6 3.1 3.1 3.5 3.6 4.4 4.8 4.8 5.3 7.6 6.9 6.8 6.1 6.4
6.5 6.5 6.5 6.5 6.5 6.5 6.5 6.5 6.5 6.5 6.5 6.5 6.5 6.5 6.7 6.8 6.6 6.5 2.8 1.8 1.6 1.3 0.7 0.4 1.0 1.1 1.5 2.1 2.7 3.8 4.5 4.0 4.0 4.1 4.7 5.4 5.5 6.4 7.1 6.3 6.8 6.7 6.3 6.6
6.5 6.5 6.5 6.5 6.5 6.5 6.5 6.5 6.1 6.5 6.5 6.5 6.6 6.5 6.5 6.9 6.5 6.5 2.7 1.3 0.8 0.7 0.6 0.1 0.6 1.3 2.0 3.1 4.3 4.7 4.7 4.7 4.8 6.0 6.1 5.8 5.8 7.1 6.9 6.5 6.7 6.4 6.2 6.2
6.5 6.5 6.5 6.5 6.5 6.5 6.5 6.4 5.5 6.5 6.5 5.8 6.1 6.7 6.8 6.5 5.6 2.9 1.6 1.5 1.6 1.7 1.4 2.0 2.8 3.0 3.6 5.1 5.3 4.7 5.5 5.4 5.7 5.6 6.1 6.7 6.4 6.6 6.6 6.1 5.8 5.6 5.8 5.4
6.5 6.5 6.5 6.5 6.5 6.5 6.3 6.4 6.5 6.2 4.1 4.1 4.9 4.7 5.2 1.5 1.6 2.2 2.5 2.5 2.7 2.4 3.1 3.7 3.6 4.1 5.5 5.8 5.0 5.6 5.8 6.3 6.4 6.2 5.3 5.1 4.9 5.1 5.1 5.0 5.2 5.3 5.6 5.2
6.5 6.5 6.5 6.5 6.5 6.3 5.4 5.2 3.2 2.4 3.5 3.1 3.8 3.4 1.3 0.9 2.8 3.0 2.7 2.9 3.3 3.7 4.3 4.8 4.1 4.5 4.9 5.5 5.3 5.0 5.2 5.7 4.8 4.5 4.0 4.0 4.0 3.9 3.9 4.5 4.7 4.7 5.0 4.7
6.5 6.5 6.5 6.5 6.5 6.5 5.2 4.0 3.2 2.4 3.0 1.3 1.9 1.6 1.3 0.8 2.2 2.6 3.1 3.5 3.7 4.3 4.4 4.3 4.2 4.2 3.9 3.9 3.7 3.6 3.4 3.8 4.0 3.5 3.4 3.3 3.4 3.3 3.5 3.9 4.1 4.1 4.4 4.8
6.5 6.5 6.5 6.5 6.5 6.2 5.0 3.9 4.0 2.6 1.4 0.8 0.8 0.8 0.7 -0.1 2.1 2.3 3.6 4.3 4.9 4.9 4.9 4.7 3.9 3.6 3.3 3.0 2.4 2.8 3.0 3.4 3.1 2.7 2.6 2.5 2.4 2.1 2.4 2.8 3.2 3.9 5.0 5.3
6.6 6.5 6.5 6.5 5.7 5.4 5.0 1.4 0.1 1.8 1.2 0.4 -0.8 0.3 1.3 0.7 0.6 3.0 4.3 5.0 5.1 4.9 4.8 4.1 3.4 2.5 2.5 2.8 2.2 1.9 2.0 2.3 2.7 2.5 2.3 1.2 1.8 2.0 2.5 2.8 3.4 3.3 4.2 5.3
Wind_Speed
1 2 5 6 7 4 5 4 3 3 2 3 4 4 13 13 11 11 10 9 10 11 14 14 15 15 14 12 12 11 10 10 10 8 7 5 5 5 5 8 11 12 14 14
1 5 4 4 4 5 4 4 5 5 2 5 2 6 7 13 15 16 16 14 14 11 11 14 14 15 15 16 14 12 13 14 12 9 7 4 6 4 5 9 11 11 13 14
5 2 5 4 3 5 4 4 4 6 2 1 1 2 4 7 11 11 13 15 14 16 17 17 17 17 16 17 16 14 15 15 13 11 8 6 7 6 4 6 5 11 12 13
5 2 5 4 4 5 3 6 3 2 2 1 2 2 3 7 13 13 16 16 17 17 16 16 17 19 18 17 13 13 12 13 12 12 10 12 9 8 5 6 5 9 11 11
4 6 4 5 5 6 5 4 3 1 2 1 1 2 3 3 11 18 20 19 19 18 18 19 19 18 15 13 12 12 13 13 13 13 11 9 8 4 5 5 9 8 10 12
4 0 4 5 4 4 5 3 4 3 2 1 1 3 3 4 5 5 16 18 19 19 19 18 15 15 14 11 11 12 13 13 13 13 13 13 11 9 6 8 8 8 8 10
1 3 2 3 3 1 2 3 0 1 1 2 4 2 8 5 8 10 11 15 18 18 18 18 18 15 13 13 13 12 14 14 15 16 15 14 10 10 11 11 10 11 9 7
6 4 7 5 5 5 3 4 4 3 3 2 2 5 4 4 7 10 9 7 12 16 16 18 19 16 16 16 15 14 15 15 16 16 16 14 10 7 9 12 10 11 10 9
5 5 2 2 3 3 3 3 1 6 2 0 2 4 9 3 7 8 9 6 7 13 15 18 16 17 17 16 16 16 15 13 13 16 13 14 9 12 11 13 12 8 8 9
7 3 1 2 2 4 3 7 3 1 3 3 2 3 4 5 4 5 7 8 4 6 10 13 14 16 16 15 16 15 14 15 13 15 14 12 13 13 11 10 10 11 11 12
5 3 1 3 5 9 4 3 3 4 2 2 2 3 6 6 3 4 6 8 8 6 9 11 12 13 13 13 14 13 14 14 13 14 13 12 11 10 9 10 11 13 10 10
6 4 5 6 2 2 2 6 6 3 4 1 2 6 4 8 7 6 8 7 8 7 6 9 11 12 13 13 12 12 11 11 10 9 9 9 11 11 12 12 12 11 7 8
8 2 3 2 1 1 3 4 3 4 3 7 5 5 1 5 6 5 8 5 5 7 8 6 8 11 13 13 12 11 10 10 10 11 12 11 11 11 13 10 7 7 6 6
9 4 6 8 8 5 4 6 7 6 3 5 7 10 8 9 5 9 6 5 5 7 9 9 9 9 10 10 10 9 8 9 10 11 11 11 12 10 6 6 5 6 5 4
5 6 6 5 4 5 5 5 11 10 7 7 12 11 11 10 5 5 4 4 7 6 8 11 9 8 8 8 8 9 10 10 11 12 12 11 10 8 8 6 6 6 5 5
3 4 6 4 3 6 4 6 8 7 4 9 8 9 11 5 4 5 4 5 6 7 5 7 9 11 10 9 9 10 10 11 11 12 12 10 10 8 9 8 6 5 4 4
3 6 4 5 1 4 4 7 10 5 5 7 10 11 1 5 5 2 3 4 4 4 3 4 7 9 11 12 13 13 13 14 14 13 10 10 10 10 8 6 6 5 5 5
5 5 2 3 1 4 5 2 2 8 9 10 8 7 6 3 4 3 2 2 2 4 6 8 9 10 11 12 12 13 13 13 13 12 11 10 8 8 7 6 2 5 2 4
3 5 3 5 5 4 3 5 6 7 14 8 12 7 4 9 6 2 2 2 2 3 6 8 9 10 12 13 14 15 15 14 14 12 10 8 8 7 6 3 3 2 3 4
4 4 3 3 5 9 6 4 6 5 12 8 10 9 11 10 5 4 4 4 5 6 8 11 12 13 14 13 15 16 15 13 11 10 8 7 6 5 3 1 2 2 3 5
3 2 6 3 4 6 5 4 6 5 10 3 9 8 14 8 1 8 9 7 7 8 11 12 13 14 14 15 16 15 13 11 8 7 8 6 5 4 3 3 3 5 6 6
7 7 4 3 2 8 7 4 9 7 3 3 7 9 8 9 11 11 11 11 11 13 14 14 15 15 14 14 14 14 13 10 9 9 8 8 7 5 5 5 5 6 6 7
4 5 5 9 7 4 11 6 6 4 4 5 8 8 13 15 9 13 13 13 12 15 15 15 16 15 13 13 13 14 9 9 9 9 9 8 7 6 6 6 6 6 7 7
4 3 3 2 5 6 5 3 3 5 5 4 5 14 15 14 16 15 14 14 15 15 15 15 17 16 14 12 12 11 9 9 9 9 8 6 6 6 6 4 5 5 6 7
3 9 6 3 4 3 6 8 2 4 5 7 9 10 14 19 17 17 15 16 15 14 14 14 15 14 13 12 12 10 9 8 8 8 6 6 5 5 5 5 5 5 6 8
5 6 5 7 7 5 6 7 11 10 10 13 13 12 13 16 19 18 16 14 15 15 14 14 14 14 12 12 11 10 9 8 7 6 5 5 4 4 4 4 4 5 6 8
Wind_Direction
46 174 215 212 203 182 177 180 235 238 242 247 234 211 203 191 198 203 209 202 200 191 185 187 192 196 200 201 199 192 180 169 160 158 157 166 166 159 157 164 161 152 152 151
82 232 213 183 163 151 186 229 263 306 303 208 193 240 214 202 213 203 198 209 211 202 191 194 195 203 209 213 207 192 193 178 182 179 169 167 159 165 160 166 160 160 154 152
186 225 155 156 168 180 208 206 221 267 330 16 252 243 194 222 237 224 224 213 212 212 207 204 204 204 204 210 202 198 192 183 183 177 145 116 109 114 152 165 161 175 159 160
228 231 186 179 211 182 254 220 204 222 205 268 303 281 238 207 223 235 229 216 215 207 215 218 212 213 210 211 202 201 189 182 180 173 171 171 174 168 187 182 158 163 166 159
228 172 180 202 214 181 229 157 176 151 123 189 221 265 276 165 224 228 226 221 222 217 211 208 211 216 210 201 192 190 183 184 180 180 183 172 172 170 167 159 154 155 160 160
209 187 171 204 202 195 134 121 57 69 114 233 249 239 276 239 231 251 232 222 220 218 217 217 209 201 199 186 182 182 183 189 184 180 188 186 176 179 184 174 170 170 171 170
77 221 220 178 152 152 140 92 212 130 157 202 130 161 251 276 258 252 262 222 220 212 209 209 203 196 189 182 182 184 189 191 191 192 194 194 178 189 201 185 182 177 177 179
180 251 182 183 199 193 172 172 166 190 191 189 207 219 238 226 295 288 273 266 230 214 207 207 205 194 188 189 190 189 194 198 194 198 196 191 179 183 209 196 190 192 185 169
154 237 188 218 140 160 166 195 108 103 24 187 248 285 277 252 290 301 299 304 248 218 209 209 200 193 191 188 194 197 198 201 197 195 191 190 179 194 205 204 193 181 161 145
194 143 171 154 130 48 181 143 136 67 175 241 235 265 246 305 325 326 310 306 308 232 216 213 203 196 195 188 189 197 205 205 195 195 195 193 193 202 203 185 165 149 136 140
136 128 193 122 221 179 147 181 75 120 161 215 267 247 217 244 279 297 280 280 279 236 210 206 203 201 194 189 193 193 195 201 195 196 192 187 189 186 171 158 151 138 133 144
192 144 184 192 220 230 202 184 158 153 192 197 251 255 236 251 263 272 274 274 275 265 233 198 191 186 190 192 190 191 198 203 197 178 169 161 145 145 151 148 137 149 154 171
176 187 189 257 16 3 212 190 144 105 97 194 212 255 216 274 296 272 265 263 251 252 257 226 192 190 191 191 188 187 187 168 155 149 137 139 142 144 137 133 141 140 157 173
128 142 167 219 224 161 191 196 182 158 154 186 220 250 263 273 268 288 270 276 275 232 226 219 212 204 195 188 176 168 144 140 132 120 126 129 130 110 92 97 137 125 126 137
144 186 180 232 236 190 209 182 176 197 212 199 243 218 247 251 231 264 301 303 296 272 221 219 217 190 165 155 147 135 129 125 129 131 127 120 108 99 106 118 118 97 136 146
180 201 161 205 124 204 223 223 188 216 218 244 254 249 232 241 249 251 289 323 307 304 281 205 177 161 157 147 138 134 137 139 129 123 122 115 103 122 130 119 96 159 151 166
184 139 133 221 190 144 304 211 197 195 206 205 229 247 208 239 224 250 307 328 319 355 14 134 146 147 143 143 140 141 144 140 130 119 118 121 125 122 117 122 158 149 207 227
161 132 102 162 126 206 245 119 165 221 247 220 255 245 220 223 122 88 2 301 38 76 96 106 117 120 123 130 127 126 126 118 111 112 116 119 116 117 128 152 159 247 236 242
194 134 130 157 194 304 242 197 175 180 261 214 232 233 183 140 147 124 38 26 48 93 93 97 107 114 118 120 125 121 117 114 115 121 121 124 128 130 145 200 248 258 252 266
92 62 138 145 182 213 218 208 148 141 278 211 192 188 159 155 174 170 146 116 101 96 101 107 108 110 111 118 121 115 114 112 114 120 119 123 144 138 144 211 264 265 267 274
116 55 184 160 217 282 248 163 153 149 259 225 202 172 163 184 92 121 126 105 100 103 105 107 105 106 113 120 115 109 110 107 107 105 113 112 92 68 43 22 6 333 322 313
169 157 177 110 152 249 156 96 179 205 179 197 176 164 144 123 123 122 122 122 120 115 113 111 108 106 108 110 108 104 100 104 101 98 91 73 61 52 39 19 3 350 340 324
237 199 184 190 206 210 196 202 192 168 155 193 169 155 144 141 150 146 139 131 125 120 116 113 107 98 88 91 97 96 92 100 97 89 76 66 59 47 33 19 3 349 345 338
220 199 191 136 213 224 245 257 231 195 201 165 147 151 154 150 152 145 140 138 133 130 122 118 110 102 93 87 82 85 85 90 89 83 69 53 48 27 25 21 13 2 356 344
178 147 161 264 282 284 260 254 263 205 158 130 121 157 155 145 150 147 145 141 134 127 122 117 112 108 102 96 85 76 72 83 86 80 66 50 41 28 21 24 16 13 12 352
193 176 160 214 207 188 191 198 170 194 189 160 141 129 145 149 144 144 140 137 132 125 124 115 112 110 105 95 86 73 67 68 78 76 60 42 36 29 25 18 17 41 360 349